Weather History for KGVT - February, 2014

Change the Weather History Date:

Wednesday, February 26, 2014

  Actual Average Record
Temperature  
Mean Temperature 35 °F -  
Max Temperature 42 °F 57 °F 82 °F (2009)
Min Temperature 28 °F 42 °F 26 °F (2002)
Degree Days  
Heating Degree Days 30    
Moisture  
Dew Point 19 °F    
Average Humidity 53    
Maximum Humidity 75    
Minimum Humidity 31    
Precipitation  
Precipitation 0.00 in - - ()
Sea Level Pressure  
Sea Level Pressure 30.22 in    
Wind  
Wind Speed 13 mph (North)    
Max Wind Speed 22 mph    
Max Gust Speed 34 mph    
Visibility 10 miles    
Events Rain    
Averages and records for this station are not official NWS values.
T = Trace of Precipitation, MM = Missing Value Source: NWS Daily Summary

Daily Weather History Graph

Daily Weather History Graph

Search for Another Location

Airport or City:

Trip Planner

Search our weather history database for the weather conditions in past years. The results will help you decide how hot, cold, wet, or windy it might be!

Date:

Astronomy

Feb. 26, 2014 Rise Set
Actual Time 6:55 AM CST 6:18 PM CST
Civil Twilight 6:30 AM CST 6:43 PM CST
Nautical Twilight 6:02 AM CST 7:12 PM CST
Astronomical Twilight 5:33 AM CST 7:41 PM CST
Moon 4:36 AM CST (2/26) 3:40 PM CST (2/26)
Length of Visible Light 12h 12m
Length of Day
11h 23m
Waning Crescent, 10% of the Moon is Illuminated
Feb 26
Waning Crescent
Mar 1
New
Mar 8
First Quarter
Mar 16
Full
Mar 23
Last Quarter

Hourly Weather History & Observations

Time (CST) Temp. Windchill Dew Point Humidity Pressure Visibility Wind Dir Wind Speed Gust Speed Precip Events Conditions
12:15 AM 41.0 °F 32.5 °F 32.0 °F 70% 30.15 in 10.0 mi North 17.3 mph 23.0 mph N/A Rain Light Rain
12:35 AM 41.0 °F 33.5 °F 32.0 °F 70% 30.16 in 10.0 mi North 13.8 mph 25.3 mph N/A   Overcast
12:55 AM 41.0 °F 33.5 °F 30.2 °F 65% 30.17 in 10.0 mi North 13.8 mph 18.4 mph N/A   Overcast
1:15 AM 41.0 °F 34.3 °F 30.2 °F 65% 30.17 in 10.0 mi North 11.5 mph - N/A   Overcast
1:35 AM 39.2 °F 30.5 °F 30.2 °F 70% 30.18 in 10.0 mi North 16.1 mph 23.0 mph N/A   Overcast
1:55 AM 37.4 °F 28.2 °F 30.2 °F 75% 30.19 in 10.0 mi North 16.1 mph 31.1 mph N/A   Overcast
2:15 AM 37.4 °F 26.6 °F 28.4 °F 70% 30.20 in 10.0 mi North 21.9 mph 34.5 mph N/A   Overcast
2:35 AM 37.4 °F 26.9 °F 28.4 °F 70% 30.20 in 10.0 mi North 20.7 mph 27.6 mph N/A   Overcast
2:55 AM 37.4 °F 27.5 °F 26.6 °F 65% 30.21 in 10.0 mi North 18.4 mph 26.5 mph N/A   Overcast
3:15 AM 35.6 °F 25.5 °F 23.0 °F 60% 30.22 in 10.0 mi North 17.3 mph 28.8 mph N/A   Overcast
3:30 AM 35.6 °F 25.5 °F 21.2 °F 56% 30.22 in 10.0 mi North 17.3 mph 25.3 mph N/A   Overcast
3:55 AM 35.6 °F 24.8 °F 23.0 °F 60% 30.22 in 10.0 mi North 19.6 mph 24.2 mph N/A   Overcast
4:15 AM 33.8 °F 23.2 °F 21.2 °F 60% 30.23 in 10.0 mi North 17.3 mph 31.1 mph N/A   Overcast
4:35 AM 33.8 °F 23.9 °F 21.2 °F 60% 30.23 in 10.0 mi North 15.0 mph 26.5 mph N/A   Overcast
4:55 AM 33.8 °F 23.5 °F 21.2 °F 60% 30.24 in 10.0 mi North 16.1 mph 27.6 mph N/A   Overcast
5:15 AM 32.0 °F 21.2 °F 21.2 °F 64% 30.24 in 10.0 mi North 16.1 mph 26.5 mph N/A   Overcast
5:35 AM 32.0 °F 20.8 °F 21.2 °F 64% 30.24 in 10.0 mi North 17.3 mph 24.2 mph N/A   Overcast
5:55 AM 32.0 °F 23.0 °F 21.2 °F 64% 30.25 in 10.0 mi North 11.5 mph 20.7 mph N/A   Overcast
6:15 AM 32.0 °F 22.1 °F 21.2 °F 64% 30.26 in 10.0 mi North 13.8 mph 21.9 mph N/A   Overcast
6:35 AM 32.0 °F 20.5 °F 19.4 °F 60% 30.27 in 10.0 mi North 18.4 mph 23.0 mph N/A   Overcast
6:55 AM 32.0 °F 21.2 °F 19.4 °F 60% 30.28 in 10.0 mi NNW 16.1 mph 26.5 mph N/A   Overcast
7:15 AM 32.0 °F 22.5 °F 17.6 °F 55% 30.29 in 10.0 mi North 12.7 mph 25.3 mph N/A   Overcast
7:35 AM 32.0 °F 21.2 °F 17.6 °F 55% 30.29 in 10.0 mi North 16.1 mph 24.2 mph N/A   Overcast
7:55 AM 32.0 °F 20.8 °F 14.0 °F 48% 30.30 in 10.0 mi North 17.3 mph 26.5 mph N/A   Mostly Cloudy
8:10 AM 32.0 °F 20.8 °F 14.0 °F 48% 30.30 in 10.0 mi North 17.3 mph 25.3 mph N/A   Scattered Clouds
8:35 AM 32.0 °F 20.8 °F 14.0 °F 48% 30.31 in 10.0 mi North 17.3 mph 24.2 mph N/A   Scattered Clouds
8:55 AM 32.0 °F 20.5 °F 14.0 °F 48% 30.30 in 10.0 mi North 18.4 mph 23.0 mph N/A   Mostly Cloudy
9:15 AM 32.0 °F 20.8 °F 15.8 °F 51% 30.31 in 10.0 mi North 17.3 mph - N/A   Scattered Clouds
9:35 AM 32.0 °F 22.1 °F 15.8 °F 51% 30.31 in 10.0 mi North 13.8 mph 19.6 mph N/A   Clear
9:55 AM 32.0 °F 21.2 °F 15.8 °F 51% 30.31 in 10.0 mi North 16.1 mph - N/A   Unknown
10:15 AM 32.0 °F 21.6 °F 14.0 °F 48% 30.31 in 10.0 mi North 15.0 mph 18.4 mph N/A   Unknown
10:35 AM 35.6 °F 25.9 °F 15.8 °F 44% 30.30 in 10.0 mi North 16.1 mph - N/A   Unknown
10:55 AM 35.6 °F 28.0 °F 17.6 °F 48% 30.29 in 10.0 mi North 10.4 mph 20.7 mph N/A   Unknown
11:15 AM 35.6 °F 27.1 °F 15.8 °F 44% 30.29 in 10.0 mi NNW 12.7 mph 17.3 mph N/A   Clear
11:35 AM 37.4 °F 28.9 °F 15.8 °F 41% 30.29 in 10.0 mi North 13.8 mph 19.6 mph N/A   Clear
11:55 AM 37.4 °F 29.3 °F 15.8 °F 41% 30.27 in 10.0 mi NNW 12.7 mph - N/A   Clear
12:15 PM 37.4 °F 29.3 °F 17.6 °F 45% 30.25 in 10.0 mi NNW 12.7 mph 16.1 mph N/A   Clear
12:35 PM 37.4 °F 28.9 °F 17.6 °F 45% 30.25 in 10.0 mi North 13.8 mph 17.3 mph N/A   Clear
12:50 PM 39.2 °F 32.5 °F 15.8 °F 39% 30.24 in 10.0 mi North 10.4 mph 20.7 mph N/A   Clear
1:15 PM 39.2 °F 33.6 °F 14.0 °F 36% 30.23 in 10.0 mi North 8.1 mph 20.7 mph N/A   Clear
1:35 PM 39.2 °F 31.6 °F 15.8 °F 39% 30.21 in 10.0 mi NNW 12.7 mph 18.4 mph N/A   Clear
1:55 PM 42.8 °F 36.2 °F 17.6 °F 36% 30.21 in 10.0 mi NNW 12.7 mph 19.6 mph N/A   Clear
2:15 PM 41.0 °F 34.7 °F 15.8 °F 36% 30.19 in 10.0 mi North 10.4 mph 17.3 mph N/A   Clear
2:35 PM 41.0 °F 34.7 °F 15.8 °F 36% 30.19 in 10.0 mi North 10.4 mph 17.3 mph N/A   Clear
2:55 PM 42.8 °F 36.2 °F 17.6 °F 36% 30.19 in 10.0 mi North 12.7 mph 20.7 mph N/A   Clear
3:15 PM 42.8 °F - 15.8 °F 34% 30.18 in 10.0 mi Calm Calm 18.4 mph N/A   Clear
3:35 PM 42.8 °F 36.2 °F 14.0 °F 31% 30.18 in 10.0 mi NNW 12.7 mph 20.7 mph N/A   Clear
3:55 PM 41.0 °F 33.1 °F 14.0 °F 33% 30.17 in 10.0 mi NNW 15.0 mph 20.7 mph N/A   Clear
4:15 PM 41.0 °F - 15.8 °F 36% 30.17 in 10.0 mi Calm Calm 19.6 mph N/A   Clear
4:35 PM 41.0 °F 34.3 °F 15.8 °F 36% 30.17 in 10.0 mi NNW 11.5 mph - N/A   Clear
4:55 PM 41.0 °F 33.9 °F 15.8 °F 36% 30.16 in 10.0 mi NNW 12.7 mph - N/A   Clear
5:15 PM 41.0 °F 33.9 °F 15.8 °F 36% 30.16 in 10.0 mi North 12.7 mph - N/A   Clear
5:30 PM 39.2 °F 32.0 °F 15.8 °F 39% 30.16 in 10.0 mi North 11.5 mph 16.1 mph N/A   Clear
5:55 PM 37.4 °F 30.8 °F 17.6 °F 45% 30.16 in 10.0 mi North 9.2 mph - N/A   Clear
6:15 PM 35.6 °F 31.7 °F 17.6 °F 48% 30.16 in 10.0 mi North 4.6 mph - N/A   Clear
6:35 PM 35.6 °F - 17.6 °F 48% 30.17 in 10.0 mi Calm Calm - N/A   Clear
6:55 PM 35.6 °F 32.8 °F 17.6 °F 48% 30.17 in 10.0 mi NNW 3.5 mph - N/A   Clear
7:15 PM 33.8 °F 30.8 °F 17.6 °F 52% 30.17 in 10.0 mi NNW 3.5 mph - N/A   Clear
7:35 PM 33.8 °F - 19.4 °F 56% 30.17 in 10.0 mi Calm Calm - N/A   Clear
7:55 PM 33.8 °F 30.8 °F 19.4 °F 56% 30.17 in 10.0 mi NW 3.5 mph - N/A   Clear
8:15 PM 32.0 °F - 19.4 °F 60% 30.17 in 10.0 mi Calm Calm - N/A   Clear
8:35 PM 32.0 °F - 19.4 °F 60% 30.17 in 10.0 mi Calm Calm - N/A   Clear
8:55 PM 32.0 °F - 19.4 °F 60% 30.18 in 10.0 mi Calm Calm - N/A   Clear
9:15 PM 32.0 °F - 19.4 °F 60% 30.19 in 10.0 mi Calm Calm - N/A   Clear
9:35 PM 32.0 °F - 21.2 °F 64% 30.19 in 10.0 mi Calm Calm - N/A   Clear
9:55 PM 32.0 °F - 21.2 °F 64% 30.19 in 10.0 mi Calm Calm - N/A   Clear
10:15 PM 30.2 °F - 21.2 °F 69% 30.19 in 10.0 mi Calm Calm - N/A   Clear
10:35 PM 30.2 °F - 21.2 °F 69% 30.18 in 10.0 mi Calm Calm - N/A   Clear
10:55 PM 28.4 °F - 21.2 °F 74% 30.18 in 10.0 mi Calm Calm - N/A   Clear
11:15 PM 28.4 °F - 19.4 °F 69% 30.18 in 10.0 mi Calm Calm - N/A   Clear
11:35 PM 28.4 °F 24.6 °F 21.2 °F 74% 30.18 in 10.0 mi North 3.5 mph - N/A   Clear
11:55 PM 28.4 °F - 19.4 °F 69% 30.18 in 10.0 mi Calm Calm - N/A   Clear